Location: Bieg
(49.3499°N, 10.3835°E)
Time: 20:58:17
(UTC+00:00)

ALOS - Pass Details

Date: 23 May 2024
Orbit: 672 x 676 km, 98.0° (Epoch: 25 June)

Event Time Altitude Azimuth Distance (km) Brightness Sun altitude
Rises 01:21:05 0° 22° (NNE) 3,040 7.4 -14.6°
Reaches altitude 10° 01:23:36 10° 34° (NE) 2,120 6.2 -14.4°
Maximum altitude 01:27:37 29° 94° (E) 1,237 3.9 -14.1°
Drops below altitude 10° 01:31:37 10° 155° (SSE) 2,103 4.5 -13.7°
Enters shadow 01:32:32 - 160° (SSE) 2,428 4.7 -13.6°
